Location: Cherry Springs State Park
(41.6616°N, 77.8240°W)
Time: 05:16:11
(UTC-04:00)

Amateur Radio Satellites - All Passes

Search period start: 26 March 2017 04:46
Search period end: 27 March 2017 04:46
Location: Cherry Springs State Park, 41.6616°N, 77.8240°W

Satellite Date Start Highest point End Downlink Frequencies (MHz)
Time Altitude Azimuth
O/OREOS (USA 219) 26 Mar 04:57:25 04:59:41 14° 262° (W) 05:01:56 437.305
CUBESAT XI-V 26 Mar 05:00:11 05:04:45 74° 75° (ENE) 05:09:21 437.345
M-CUBED/EXP-1 PRIME 26 Mar 05:11:32 05:13:07 12° 56° (NE) 05:14:46 437.505
KKS-1 26 Mar 05:33:05 05:37:09 35° 262° (W) 05:41:17 437.445
DOVE 4 26 Mar 05:51:05 05:53:27 13° 87° (E) 05:55:47 437.250
AO-7 26 Mar 05:53:46 06:01:46 54° 296° (WNW) 06:09:43 .
ITAMSAT 1 26 Mar 06:07:04 06:10:20 17° 299° (WNW) 06:13:36 435.822/435.867
STARS 26 Mar 06:11:09 06:15:04 31° 263° (W) 06:19:02 437.465
CUTE-I 26 Mar 06:13:23 06:15:51 13° 89° (E) 06:18:17 437.470
AO-85 26 Mar 06:16:29 06:20:23 61° 55° (NE) 06:24:22 145.980
CUBESAT XI-V 26 Mar 06:41:35 06:42:38 11° 271° (W) 06:43:41 437.345
XW-2F 26 Mar 06:42:22 06:45:20 22° 95° (E) 06:48:16 145.980 - 146.000
LilacSat-2 26 Mar 06:42:35 06:45:42 24° 95° (E) 06:48:48 437.200
M-CUBED/EXP-1 PRIME 26 Mar 06:43:24 06:47:00 58° 255° (WSW) 06:50:55 437.505
XW-2D 26 Mar 07:07:26 07:11:04 48° 99° (E) 07:14:42 145.860 - 145.880
NUDT-PHONESAT 26 Mar 07:09:06 07:12:34 38° 98° (E) 07:16:00 437.300
XW-2B 26 Mar 07:13:19 07:17:01 56° 100° (E) 07:20:41 145.730 - 145.750
YUBILEINY 26 Mar 07:15:12 07:22:22 30° 83° (E) 07:29:30 435.215
STRAND 1 26 Mar 07:15:15 07:20:10 47° 71° (ENE) 07:25:06 437.568
KAITUO 1B 26 Mar 07:15:35 07:19:10 47° 99° (E) 07:22:44 145.475/437.950
BEESAT 3 26 Mar 07:20:29 07:24:07 31° 50° (NE) 07:27:43 437.485
XW-2C 26 Mar 07:23:27 07:27:12 78° 101° (E) 07:30:56 145.795 - 145.815
DOVE 4 26 Mar 07:26:22 07:31:42 80° 284° (WNW) 07:36:56 437.250
XW-2A 26 Mar 07:31:57 07:32:31 10° 91° (E) 07:33:04 145.665 - 145.685
CUTE 1.7 + AOD 2 26 Mar 07:32:03 07:33:06 11° 89° (E) 07:34:09 437.475
BEESAT 2 26 Mar 07:35:11 07:38:16 20° 45° (NE) 07:41:21 435.950
AO-7 26 Mar 07:49:29 07:52:40 13° 317° (NW) 07:55:52 .
CUTE-I 26 Mar 07:51:06 07:56:29 78° 285° (WNW) 08:01:48 437.470
NO-84 26 Mar 07:57:06 07:59:57 70° 319° (NW) 08:02:48 435.350 FM
AO-85 26 Mar 07:59:01 08:00:17 11° 250° (WSW) 08:01:33 145.980
XW-2F 26 Mar 08:16:23 08:19:25 24° 291° (WNW) 08:22:26 145.980 - 146.000
LilacSat-2 26 Mar 08:16:55 08:19:53 22° 291° (WNW) 08:22:50 437.200
HO-68 26 Mar 08:27:12 08:34:10 50° 101° (E) 08:41:04 435.675
CUBEBUG 2 26 Mar 08:42:55 08:46:52 31° 96° (E) 08:50:40 437.445
XW-2D 26 Mar 08:43:21 08:44:50 12° 296° (WNW) 08:46:20 145.860 - 145.880
NUDT-PHONESAT 26 Mar 08:44:11 08:46:09 14° 294° (WNW) 08:48:08 437.300
AAUSAT CUBESAT 2 26 Mar 08:45:35 08:48:56 23° 95° (E) 08:52:17 437.432
XW-2B 26 Mar 08:49:50 08:50:43 11° 297° (WNW) 08:51:36 145.730 - 145.750
KAITUO 1B 26 Mar 08:51:20 08:52:46 12° 295° (WNW) 08:54:12 145.475/437.950
ZACube-1 26 Mar 08:53:29 08:55:41 14° 90° (E) 08:57:52 437.345
STRAND 1 26 Mar 08:55:43 08:59:34 21° 267° (W) 09:03:26 437.568
PCSat 26 Mar 08:57:39 08:59:54 13° 102° (ESE) 09:02:09 145.827
BEESAT 3 26 Mar 08:58:17 09:01:35 24° 247° (WSW) 09:04:50 437.485
SEEDS 26 Mar 08:59:08 09:03:19 71° 101° (E) 09:07:30 437.485
XW-2A 26 Mar 09:02:17 09:05:30 40° 286° (WNW) 09:08:39 145.665 - 145.685
PRISM 26 Mar 09:03:24 09:06:28 21° 66° (ENE) 09:09:32 437.425
CUTE 1.7 + AOD 2 26 Mar 09:05:09 09:09:20 63° 285° (WNW) 09:13:30 437.475
DOVE 4 26 Mar 09:06:47 09:08:28 11° 302° (WNW) 09:10:09 437.250
YUBILEINY 26 Mar 09:09:57 09:18:33 60° 282° (WNW) 09:27:12 435.215
BEESAT 2 26 Mar 09:12:23 09:16:15 43° 243° (WSW) 09:20:04 435.950
AO-73 26 Mar 09:21:06 09:24:37 25° 95° (E) 09:28:05 145.935
TIGRISAT 26 Mar 09:33:16 09:36:57 23° 66° (ENE) 09:40:36 435.000
CUTE-I 26 Mar 09:34:09 09:35:36 11° 304° (WNW) 09:37:04 437.470
NO-84 26 Mar 09:36:53 09:37:59 12° 339° (NNW) 09:39:04 435.350 FM
UNISAT 6 26 Mar 09:42:49 09:46:54 31° 69° (ENE) 09:50:59 437.425
FO-29 26 Mar 09:45:00 09:51:42 33° 64° (ENE) 09:58:03 435.910
UWE-3 26 Mar 09:46:17 09:50:38 83° 283° (WNW) 09:54:50 435.000/436.395/437.385
DELFI C3 26 Mar 10:08:57 10:12:05 22° 94° (E) 10:15:13 145.870
HO-68 26 Mar 10:15:23 10:21:36 33° 298° (WNW) 10:27:47 435.675
CUBEBUG 2 26 Mar 10:19:47 10:23:18 24° 293° (WNW) 10:26:43 437.445
AAUSAT CUBESAT 2 26 Mar 10:20:48 10:24:22 28° 290° (WNW) 10:27:56 437.432
Oscar 11 26 Mar 10:21:15 10:25:34 77° 284° (WNW) 10:29:51 .
ZACube-1 26 Mar 10:28:11 10:32:17 48° 287° (WNW) 10:36:17 437.345
PCSat 26 Mar 10:37:05 10:42:30 86° 299° (WNW) 10:47:58 145.827
SEEDS 26 Mar 10:37:22 10:38:25 11° 298° (WNW) 10:39:28 437.485
PRISM 26 Mar 10:37:56 10:41:33 31° 263° (W) 10:45:14 437.425
POLYITAN 1 26 Mar 10:48:14 10:49:58 12° 62° (ENE) 10:51:42 437.675
QB50P2 26 Mar 10:52:09 10:54:29 15° 63° (ENE) 10:56:50 145.880/145.840
AO-73 26 Mar 10:57:17 11:00:48 26° 292° (WNW) 11:04:16 145.935
DUCHIFAT 1 26 Mar 11:04:44 11:07:12 15° 64° (ENE) 11:09:40 145.980
TIGRISAT 26 Mar 11:09:02 11:13:24 38° 263° (W) 11:17:46 435.000
YUBILEINY 26 Mar 11:14:46 11:17:30 12° 305° (NW) 11:20:14 435.215
UNISAT 6 26 Mar 11:19:32 11:23:33 28° 265° (W) 11:27:35 437.425
FO-29 26 Mar 11:28:41 11:36:22 56° 260° (W) 11:43:38 435.910
AIST 2D 26 Mar 11:40:24 11:43:56 74° 76° (ENE) 11:47:28 435.315
DELFI C3 26 Mar 11:43:27 11:46:52 28° 290° (WNW) 11:50:16 145.870
NANOSAT C BR1 26 Mar 11:48:40 11:52:46 48° 72° (ENE) 11:56:53 145.865
LO-87 26 Mar 11:49:35 11:53:01 37° 98° (E) 11:56:24 145.935 - 145.965
EO-79 26 Mar 11:52:55 11:57:07 59° 74° (ENE) 12:01:21 145.935-145.965
VELOX 1 26 Mar 12:16:35 12:18:12 12° 90° (E) 12:19:48 145.980
POLYITAN 1 26 Mar 12:20:55 12:25:11 66° 258° (WSW) 12:29:29 437.675
Oscar 19 26 Mar 12:21:45 12:24:22 14° 60° (ENE) 12:26:59 437.125/150
PCSat 26 Mar 12:23:22 12:26:42 16° 319° (NW) 12:30:04 145.827
QB50P2 26 Mar 12:25:39 12:29:49 54° 260° (W) 12:34:03 145.880/145.840
Gurwin Techsat 1B 26 Mar 12:35:05 12:36:36 11° 57° (ENE) 12:38:07 435.225
ESTCUBE 1 26 Mar 12:36:55 12:41:25 67° 102° (ESE) 12:45:54 437.505/2401.250
DUCHIFAT 1 26 Mar 12:38:18 12:42:26 50° 260° (W) 12:46:37 145.980
RS-15 26 Mar 12:39:19 12:50:27 48° 109° (ESE) 13:01:56 29.354- 29.394
50 SAT 26 Mar 12:48:27 12:50:16 13° 93° (E) 12:52:04 437.505
NO-84 26 Mar 12:53:48 12:55:32 14° 24° (NNE) 12:57:18 435.350 FM
BUGSAT 1 26 Mar 12:55:18 12:59:32 83° 75° (ENE) 13:03:48 437.445
SPROUT 26 Mar 13:01:08 13:04:58 31° 96° (E) 13:08:46 437.525
AO-7 26 Mar 13:14:53 13:17:25 12° 41° (NE) 13:19:57 .
LO-87 26 Mar 13:24:04 13:26:08 15° 294° (WNW) 13:28:11 145.935 - 145.965
NANOSAT C BR1 26 Mar 13:26:20 13:28:44 15° 269° (W) 13:31:09 145.865
DX 1 26 Mar 13:28:51 13:32:42 29° 97° (E) 13:36:30 434.975-435.025
EO-79 26 Mar 13:31:35 13:33:15 12° 270° (W) 13:34:57 145.935-145.965
VELOX 1 26 Mar 13:50:38 13:55:04 66° 286° (WNW) 13:59:29 145.980
Oscar 19 26 Mar 13:57:54 14:03:01 78° 257° (WSW) 14:08:10 437.125/150
ITAMSAT 1 26 Mar 14:08:07 14:10:46 14° 59° (ENE) 14:13:26 435.822/435.867
UKube-1 26 Mar 14:09:06 14:13:22 56° 100° (E) 14:17:38 .
Gurwin Techsat 1B 26 Mar 14:10:20 14:15:39 79° 74° (ENE) 14:20:59 435.225
ESTCUBE 1 26 Mar 14:15:33 14:17:39 13° 298° (WNW) 14:19:45 437.505/2401.250
50 SAT 26 Mar 14:20:14 14:23:26 34° 288° (WNW) 14:26:38 437.505
NO-84 26 Mar 14:30:17 14:33:28 80° 41° (NE) 14:36:57 435.350 FM
SPROUT 26 Mar 14:37:19 14:40:42 23° 293° (WNW) 14:44:05 437.525
SO-50 26 Mar 14:49:31 14:53:36 31° 115° (ESE) 14:57:40 436.795
RS-15 26 Mar 14:50:55 15:02:46 58° 313° (NW) 15:14:59 29.354- 29.394
AO-7 26 Mar 15:00:19 15:08:14 50° 63° (ENE) 15:16:06 .
DX 1 26 Mar 15:05:07 15:08:46 26° 293° (WNW) 15:12:24 434.975-435.025
ITAMSAT 1 26 Mar 15:44:18 15:49:32 81° 256° (WSW) 15:54:48 435.822/435.867
BEESAT 26 Mar 15:46:26 15:51:00 45° 99° (E) 15:55:32 436.000
UKube-1 26 Mar 15:46:36 15:48:56 14° 297° (WNW) 15:51:16 .
Gurwin Techsat 1B 26 Mar 15:53:53 15:56:11 13° 271° (W) 15:58:30 435.225
ITUPSAT 1 26 Mar 16:02:28 16:07:12 65° 101° (ESE) 16:11:54 437.325
MOZHAYETS 4 26 Mar 16:04:53 16:08:53 29° 96° (E) 16:12:51
NO-84 26 Mar 16:10:08 16:10:41 10° 234° (SW) 16:11:14 435.350 FM
SO-50 26 Mar 16:29:51 16:34:01 32° 312° (NW) 16:38:10 436.795
AO-7 26 Mar 16:53:30 17:01:06 38° 261° (W) 17:08:44 .
DOVE 4 26 Mar 16:57:16 16:59:20 13° 59° (ENE) 17:01:26 437.250
CUBESAT XI-V 26 Mar 16:57:20 17:00:32 18° 92° (E) 17:03:43 437.345
RS-15 26 Mar 17:08:59 17:18:50 26° 343° (NNW) 17:28:43 29.354- 29.394
KKS-1 26 Mar 17:23:19 17:27:35 41° 99° (E) 17:31:48 437.445
XW-2F 26 Mar 17:24:56 17:26:31 12° 65° (ENE) 17:28:06 145.980 - 146.000
BEESAT 26 Mar 17:25:00 17:28:27 20° 296° (WNW) 17:31:53 436.000
YUBILEINY 26 Mar 17:25:28 17:29:43 14° 57° (ENE) 17:33:57 435.215
LilacSat-2 26 Mar 17:25:46 17:27:46 14° 66° (ENE) 17:29:47 437.200
O/OREOS (USA 219) 26 Mar 17:28:30 17:32:59 68° 109° (ESE) 17:37:32 437.305
CUTE-I 26 Mar 17:34:35 17:38:49 24° 64° (ENE) 17:43:02 437.470
ITUPSAT 1 26 Mar 17:41:51 17:44:29 15° 299° (WNW) 17:47:07 437.325
MOZHAYETS 4 26 Mar 17:42:07 17:45:56 27° 292° (WNW) 17:49:45
PCSat 26 Mar 17:42:47 17:45:56 15° 40° (NE) 17:49:03 145.827
XW-2D 26 Mar 17:49:06 17:52:14 25° 69° (ENE) 17:55:22 145.860 - 145.880
NUDT-PHONESAT 26 Mar 17:49:14 17:51:57 19° 68° (ENE) 17:54:40 437.300
XW-2B 26 Mar 17:54:53 17:58:09 28° 70° (ENE) 18:01:25 145.730 - 145.750
KAITUO 1B 26 Mar 17:56:08 17:59:09 23° 69° (ENE) 18:02:09 145.475/437.950
STARS 26 Mar 17:59:38 18:03:54 45° 99° (E) 18:08:06 437.465
XW-2C 26 Mar 18:04:46 18:08:17 37° 72° (ENE) 18:11:48 145.795 - 145.815
M-CUBED/EXP-1 PRIME 26 Mar 18:24:18 18:24:58 10° 94° (E) 18:25:38 437.505
DOVE 4 26 Mar 18:31:33 18:36:12 80° 257° (WSW) 18:41:13 437.250
CUBESAT XI-V 26 Mar 18:33:40 18:38:07 46° 288° (WNW) 18:42:33 437.345
HO-68 26 Mar 18:56:08 19:02:36 39° 64° (ENE) 19:09:05 435.675
XW-2F 26 Mar 18:56:34 19:00:15 49° 260° (W) 19:03:57 145.980 - 146.000
LilacSat-2 26 Mar 18:58:01 19:01:41 43° 261° (W) 19:05:21 437.200
KKS-1 26 Mar 19:00:36 19:03:50 20° 295° (WNW) 19:07:03 437.445
O/OREOS (USA 219) 26 Mar 19:10:23 19:12:54 14° 308° (NW) 19:15:25 437.305
CUTE-I 26 Mar 19:13:23 19:18:32 47° 261° (W) 19:23:44 437.470
YUBILEINY 26 Mar 19:19:37 19:28:20 70° 80° (E) 19:37:00 435.215
NUDT-PHONESAT 26 Mar 19:22:26 19:25:41 28° 263° (W) 19:28:58 437.300
XW-2D 26 Mar 19:23:20 19:26:22 22° 265° (W) 19:29:25 145.860 - 145.880
PCSat 26 Mar 19:24:46 19:30:13 79° 59° (ENE) 19:35:39 145.827
STRAND 1 26 Mar 19:26:51 19:29:49 15° 91° (E) 19:32:47 437.568
RS-15 26 Mar 19:26:54 19:37:00 27° 19° (NNE) 19:46:52 29.354- 29.394
XW-2B 26 Mar 19:29:30 19:32:21 20° 266° (W) 19:35:11 145.730 - 145.750
KAITUO 1B 26 Mar 19:30:04 19:33:05 23° 265° (W) 19:36:07 145.475/437.950
XW-2A 26 Mar 19:33:15 19:36:39 59° 75° (ENE) 19:40:03 145.665 - 145.685
AAUSAT CUBESAT 2 26 Mar 19:36:35 19:39:11 17° 66° (ENE) 19:41:48 437.432
STARS 26 Mar 19:36:53 19:39:53 18° 296° (WNW) 19:42:52 437.465
XW-2C 26 Mar 19:40:22 19:42:38 15° 268° (W) 19:44:53 145.795 - 145.815
CUBEBUG 2 26 Mar 19:40:36 19:44:42 30° 69° (ENE) 19:48:48 437.445
ZACube-1 26 Mar 19:49:45 19:51:58 14° 63° (ENE) 19:54:11 437.345
SEEDS 26 Mar 19:50:41 19:54:42 48° 73° (ENE) 19:58:42 437.485
M-CUBED/EXP-1 PRIME 26 Mar 19:55:13 19:59:53 86° 291° (WNW) 20:04:34 437.505
CUTE 1.7 + AOD 2 26 Mar 19:57:28 20:01:40 90° 68° (ENE) 20:05:53 437.475
AO-73 26 Mar 20:16:36 20:20:08 23° 67° (ENE) 20:23:38 145.935
AO-85 26 Mar 20:31:59 20:35:09 19° 113° (ESE) 20:38:10 145.980
UWE-3 26 Mar 20:42:28 20:47:08 79° 77° (ENE) 20:51:46 435.000/436.395/437.385
HO-68 26 Mar 20:43:33 20:50:13 42° 261° (W) 20:56:58 435.675
DELFI C3 26 Mar 20:55:45 20:57:46 14° 64° (ENE) 20:59:46 145.870
STRAND 1 26 Mar 21:04:21 21:09:25 63° 287° (WNW) 21:14:27 437.568
PCSat 26 Mar 21:10:09 21:12:53 14° 257° (WSW) 21:15:37 145.827
AAUSAT CUBESAT 2 26 Mar 21:10:26 21:14:19 41° 262° (W) 21:18:13 437.432
Oscar 11 26 Mar 21:15:42 21:20:01 82° 77° (ENE) 21:24:20 .
Tancredo 1 26 Mar 21:16:20 21:19:26 63° 142° (SE) 21:22:35 437.200
ISS 26 Mar 21:16:45 21:19:56 55° 141° (SE) 21:23:09 437.550
CUBEBUG 2 26 Mar 21:17:05 21:21:14 30° 265° (W) 21:25:23 437.445
YUBILEINY 26 Mar 21:17:42 21:24:16 25° 279° (W) 21:30:50 435.215
ZACube-1 26 Mar 21:23:11 21:27:43 65° 258° (WSW) 21:32:12 437.345
SEEDS 26 Mar 21:28:28 21:30:39 14° 269° (W) 21:32:50 437.485
M-CUBED/EXP-1 PRIME 26 Mar 21:32:04 21:33:36 12° 305° (NW) 21:35:09 437.505
RS-15 26 Mar 21:40:28 21:52:44 63° 50° (NE) 22:04:25 29.354- 29.394
AO-73 26 Mar 21:52:01 21:56:10 35° 263° (W) 22:00:17 145.935
AO-85 26 Mar 22:11:05 22:15:17 43° 307° (NW) 22:19:15 145.980
PRISM 26 Mar 22:18:35 22:22:19 31° 97° (E) 22:26:03 437.425
UWE-3 26 Mar 22:23:21 22:24:05 10° 272° (W) 22:24:50 435.000/436.395/437.385
LO-87 26 Mar 22:26:48 22:29:07 16° 67° (ENE) 22:31:27 145.935 - 145.965
DELFI C3 26 Mar 22:28:22 22:32:09 46° 261° (W) 22:35:57 145.870
FO-29 26 Mar 22:40:32 22:44:40 20° 89° (E) 22:48:34 435.910
BEESAT 3 26 Mar 22:47:24 22:51:10 48° 118° (ESE) 22:55:00 437.485
Tancredo 1 26 Mar 22:53:11 22:55:48 23° 340° (NNW) 22:58:25 437.200
ISS 26 Mar 22:53:49 22:56:36 25° 339° (NNW) 22:59:24 437.550
TIGRISAT 26 Mar 23:00:12 23:04:25 43° 98° (E) 23:08:31 435.000
BEESAT 2 26 Mar 23:03:55 23:07:19 28° 114° (ESE) 23:10:45 435.950
UNISAT 6 26 Mar 23:10:20 23:14:44 61° 101° (E) 23:18:59 437.425
VELOX 1 26 Mar 23:14:36 23:16:12 12° 61° (ENE) 23:17:47 145.980
SO-50 26 Mar 23:20:16 23:24:18 31° 48° (NE) 23:28:17 436.795
ESTCUBE 1 26 Mar 23:36:19 23:40:43 61° 74° (ENE) 23:45:09 437.505/2401.250
RS-15 26 Mar 23:53:41 00:04:42 42° 253° (WSW) 00:15:17 29.354- 29.394
PRISM 26 Mar 23:54:13 23:57:26 22° 293° (WNW) 00:00:39 437.425
SPROUT 26 Mar 23:54:45 23:58:16 25° 68° (ENE) 00:01:48 437.525
LO-87 26 Mar 23:59:06 00:02:19 31° 263° (W) 00:05:35 145.935 - 145.965
POLYITAN 1 27 Mar 00:06:22 00:09:25 19° 93° (E) 00:12:27 437.675
QB50P2 27 Mar 00:10:43 00:14:08 23° 95° (E) 00:17:30 145.880/145.840
DUCHIFAT 1 27 Mar 00:22:28 00:25:53 24° 95° (E) 00:29:15 145.980
FO-29 27 Mar 00:24:25 00:30:19 55° 290° (WNW) 00:35:37 435.910
DX 1 27 Mar 00:24:37 00:28:13 26° 67° (ENE) 00:31:52 434.975-435.025
BEESAT 3 27 Mar 00:26:13 00:29:01 18° 316° (NW) 00:31:52 437.485
Tancredo 1 27 Mar 00:31:03 00:32:48 14° 360° (N) 00:34:32 437.200
ISS 27 Mar 00:32:00 00:33:55 14° 359° (N) 00:35:50 437.550
TIGRISAT 27 Mar 00:37:46 00:40:46 18° 296° (WNW) 00:43:41 435.000
AIST 2D 27 Mar 00:38:26 00:41:56 90° 300° (WNW) 00:45:24 435.315
BUGSAT 1 27 Mar 00:39:07 00:40:31 11° 90° (E) 00:41:57 437.445
BEESAT 2 27 Mar 00:41:36 00:45:02 27° 312° (NW) 00:48:31 435.950
VELOX 1 27 Mar 00:47:37 00:52:01 73° 258° (WSW) 00:56:27 145.980
UNISAT 6 27 Mar 00:48:45 00:50:54 13° 298° (WNW) 00:53:00 437.425
50 SAT 27 Mar 00:53:18 00:56:43 86° 82° (E) 01:00:12 437.505
SO-50 27 Mar 01:00:44 01:04:42 31° 246° (WSW) 01:08:39 436.795
UKube-1 27 Mar 01:03:28 01:07:36 48° 72° (ENE) 01:11:46 .
NANOSAT C BR1 27 Mar 01:08:05 01:12:20 88° 105° (ESE) 01:16:32 145.865
EO-79 27 Mar 01:12:53 01:17:08 75° 283° (WNW) 01:21:19 145.935-145.965
ESTCUBE 1 27 Mar 01:16:00 01:17:55 12° 270° (W) 01:19:50 437.505/2401.250
SPROUT 27 Mar 01:30:20 01:34:04 29° 264° (W) 01:37:49 437.525
POLYITAN 1 27 Mar 01:41:26 01:45:18 36° 290° (WNW) 01:49:09 437.675
QB50P2 27 Mar 01:46:13 01:49:55 30° 291° (WNW) 01:53:35 145.880/145.840
DUCHIFAT 1 27 Mar 01:57:53 02:01:31 29° 291° (WNW) 02:05:08 145.980
O/OREOS (USA 219) 27 Mar 02:00:10 02:03:03 16° 53° (NE) 02:05:54 437.305
DX 1 27 Mar 02:00:34 02:04:19 28° 264° (W) 02:08:06 434.975-435.025
Tancredo 1 27 Mar 02:07:11 02:09:47 22° 20° (NNE) 02:12:23 437.200
ISS 27 Mar 02:08:37 02:11:17 22° 19° (NNE) 02:13:57 437.550
Oscar 19 27 Mar 02:09:22 02:14:08 36° 97° (E) 02:18:52 437.125/150
BUGSAT 1 27 Mar 02:12:09 02:16:17 58° 286° (WNW) 02:20:19 437.445
Gurwin Techsat 1B 27 Mar 02:26:43 02:31:24 30° 96° (E) 02:36:02 435.225
UKube-1 27 Mar 02:41:23 02:43:53 15° 268° (W) 02:46:24 .
BEESAT 27 Mar 02:52:45 02:57:23 54° 72° (ENE) 03:02:03 436.000
AO-7 27 Mar 03:04:30 03:07:54 13° 87° (E) 03:11:18 .
MOZHAYETS 4 27 Mar 03:06:52 03:10:51 30° 69° (ENE) 03:14:50
ITUPSAT 1 27 Mar 03:09:06 03:13:53 77° 74° (ENE) 03:18:41 437.325
O/OREOS (USA 219) 27 Mar 03:38:19 03:42:53 61° 251° (WSW) 03:47:24 437.305
Tancredo 1 27 Mar 03:42:59 03:46:10 67° 218° (SW) 03:49:21 437.200
ISS 27 Mar 03:44:45 03:48:03 75° 218° (SW) 03:51:20 437.550
Oscar 19 27 Mar 03:48:55 03:53:17 28° 294° (WNW) 03:57:39 437.125/150
ITAMSAT 1 27 Mar 03:57:14 04:01:57 34° 97° (E) 04:06:39 435.822/435.867
CUBESAT XI-V 27 Mar 04:01:07 04:04:17 19° 65° (ENE) 04:07:28 437.345
Gurwin Techsat 1B 27 Mar 04:06:33 04:11:20 35° 293° (WNW) 04:16:05 435.225
KKS-1 27 Mar 04:21:20 04:25:29 39° 70° (ENE) 04:29:40 437.445
BEESAT 27 Mar 04:32:31 04:35:28 16° 268° (W) 04:38:26 436.000
